| time (UTC) | temp F | wind direction | speed knots | gust knots | rain 1hr in | rain 24hr in | rain mn in | humidity % | barometer mb |
| 20260506155529 | 74 | 166 | 6.1 | 13.9 | 0.00 | 0.00 | 0.00 | 42 | 1003.7 |
| 20260506154521 | 74 | 168 | 5.2 | 12.2 | 0.00 | 0.00 | 0.00 | 43 | 1003.7 |
| 20260506153529 | 73 | 177 | 8.7 | 16.5 | 0.00 | 0.00 | 0.00 | 43 | 1003.7 |
| 20260506152521 | 74 | 161 | 7.8 | 19.1 | 0.00 | 0.00 | 0.00 | 43 | 1003.8 |
| 20260506151529 | 74 | 169 | 8.7 | 19.1 | 0.00 | 0.00 | 0.00 | 43 | 1004.0 |
| 20260506150521 | 74 | 168 | 7.8 | 21.7 | 0.00 | 0.00 | 0.00 | 43 | 1003.9 |
| 20260506145529 | 74 | 174 | 7.0 | 18.2 | 0.00 | 0.00 | 0.00 | 42 | 1004.0 |
| 20260506144521 | 75 | 158 | 7.0 | 20.0 | 0.00 | 0.00 | 0.00 | 41 | 1003.9 |
| 20260506143522 | 75 | 165 | 7.8 | 20.0 | 0.00 | 0.00 | 0.00 | 40 | 1004.0 |
| 20260506142529 | 75 | 168 | 8.7 | 20.0 | 0.00 | 0.00 | 0.00 | 39 | 1004.1 |
| 20260506141521 | 76 | 165 | 8.7 | 16.5 | 0.00 | 0.00 | 0.00 | 37 | 1004.1 |
| 20260506140530 | 76 | 175 | 7.8 | 20.9 | 0.00 | 0.00 | 0.00 | 37 | 1004.0 |
| 20260506135530 | 77 | 173 | 7.0 | 15.6 | 0.00 | 0.00 | 0.00 | 36 | 1003.9 |
| 20260506134529 | 77 | 168 | 7.0 | 20.0 | 0.00 | 0.00 | 0.00 | 36 | 1004.0 |
| 20260506133521 | 77 | 171 | 7.0 | 14.8 | 0.00 | 0.00 | 0.00 | 36 | 1004.0 |
| 20260506132529 | 77 | 178 | 7.0 | 17.4 | 0.00 | 0.00 | 0.00 | 36 | 1004.0 |
| 20260506131521 | 78 | 164 | 6.1 | 14.8 | 0.00 | 0.00 | 0.00 | 35 | 1003.9 |
| 20260506130529 | 77 | 156 | 7.0 | 16.5 | 0.00 | 0.00 | 0.00 | 36 | 1004.0 |
| 20260506125529 | 77 | 162 | 6.1 | 13.0 | 0.00 | 0.00 | 0.00 | 35 | 1004.3 |
| 20260506124522 | 77 | 168 | 6.1 | 15.6 | 0.00 | 0.00 | 0.00 | 34 | 1004.2 |
| 20260506123530 | 77 | 179 | 6.1 | 13.9 | 0.00 | 0.00 | 0.00 | 34 | 1004.4 |
| 20260506122522 | 76 | 167 | 5.2 | 14.8 | 0.00 | 0.00 | 0.00 | 35 | 1004.4 |
| 20260506121529 | 76 | 162 | 6.1 | 14.8 | 0.00 | 0.00 | 0.00 | 35 | 1004.3 |
| 20260506120521 | 76 | 139 | 6.1 | 13.0 | 0.00 | 0.00 | 0.00 | 35 | 1004.5 |
| 20260506115522 | 77 | 154 | 7.0 | 16.5 | 0.00 | 0.00 | 0.00 | 35 | 1004.5 |
| 20260506114529 | 76 | 146 | 5.2 | 15.6 | 0.00 | 0.00 | 0.00 | 35 | 1004.7 |
| 20260506113522 | 76 | 166 | 5.2 | 12.2 | 0.00 | 0.00 | 0.00 | 34 | 1004.9 |
| 20260506112530 | 77 | 144 | 6.1 | 17.4 | 0.00 | 0.00 | 0.00 | 33 | 1005.0 |
| 20260506111521 | 77 | 156 | 6.1 | 13.0 | 0.00 | 0.00 | 0.00 | 32 | 1005.2 |
| 20260506110530 | 77 | 166 | 4.3 | 12.2 | 0.00 | 0.00 | 0.00 | 33 | 1005.2 |
| 20260506105530 | 75 | 132 | 7.0 | 13.0 | 0.00 | 0.00 | 0.00 | 33 | 1005.5 |
| 20260506104522 | 75 | 141 | 6.1 | 14.8 | 0.00 | 0.00 | 0.00 | 32 | 1005.7 |
| 20260506103529 | 75 | 141 | 7.0 | 16.5 | 0.00 | 0.00 | 0.00 | 38 | 1005.9 |
| 20260506102522 | 74 | 140 | 5.2 | 14.8 | 0.00 | 0.00 | 0.00 | 40 | 1006.1 |
| 20260506101529 | 73 | 134 | 6.1 | 13.0 | 0.00 | 0.00 | 0.00 | 41 | 1006.1 |
| 20260506100521 | 73 | 125 | 7.0 | 13.0 | 0.00 | 0.00 | 0.00 | 42 | 1006.4 |
| 20260506095522 | 72 | 131 | 7.8 | 20.0 | 0.00 | 0.00 | 0.00 | 42 | 1006.7 |
| 20260506094530 | 71 | 136 | 7.0 | 13.0 | 0.00 | 0.00 | 0.00 | 45 | 1006.7 |
| 20260506093521 | 72 | 149 | 5.2 | 14.8 | 0.00 | 0.00 | 0.00 | 45 | 1006.9 |
| 20260506092522 | 72 | 116 | 5.2 | 14.8 | 0.00 | 0.00 | 0.00 | 44 | 1007.0 |
| 20260506091530 | 72 | 140 | 6.1 | 13.0 | 0.00 | 0.00 | 0.00 | 44 | 1007.1 |
| 20260506090522 | 72 | 120 | 6.1 | 11.3 | 0.00 | 0.00 | 0.00 | 43 | 1007.2 |
| 20260506085530 | 72 | 110 | 5.2 | 12.2 | 0.00 | 0.00 | 0.00 | 43 | 1007.2 |
| 20260506084521 | 72 | 130 | 5.2 | 12.2 | 0.00 | 0.00 | 0.00 | 41 | 1007.2 |
| 20260506083530 | 72 | 129 | 4.3 | 9.6 | 0.00 | 0.00 | 0.00 | 41 | 1007.2 |
| 20260506082521 | 72 | 144 | 3.5 | 7.8 | 0.00 | 0.00 | 0.00 | 42 | 1007.2 |
| 20260506081529 | 72 | 141 | 3.5 | 8.7 | 0.00 | 0.00 | 0.00 | 41 | 1007.0 |
| 20260506080522 | 73 | 168 | 2.6 | 5.2 | 0.00 | 0.00 | 0.00 | 40 | 1007.2 |
| 20260506072522 | 70 | 150 | 1.7 | 4.3 | 0.00 | 0.00 | 0.00 | 44 | 1007.3 |
| 20260506071530 | 70 | 138 | 2.6 | 5.2 | 0.00 | 0.00 | 0.00 | 43 | 1007.4 |
| 20260506070522 | 69 | 157 | 2.6 | 4.3 | 0.00 | 0.00 | 0.00 | 45 | 1007.6 |
| 20260506061530 | 69 | 110 | 0.0 | 1.7 | 0.00 | 0.00 | 0.00 | 49 | 1007.6 |
| 20260506060522 | 67 | 274 | 0.0 | 2.6 | 0.00 | 0.00 | 0.00 | 52 | 1007.7 |
| 20260506050522 | 61 | 107 | 0.9 | 3.5 | 0.00 | 0.00 | 0.00 | 64 | 1007.8 |
| 20260506044523 | 60 | 66 | 1.7 | 4.3 | 0.00 | 0.00 | 0.00 | 63 | 1007.7 |
| 20260506043530 | 57 | 126 | 1.7 | 4.3 | 0.00 | 0.00 | 0.00 | 69 | 1007.6 |
| 20260506042522 | 56 | 142 | 0.9 | 3.5 | 0.00 | 0.00 | 0.00 | 72 | 1007.5 |
| 20260506041531 | 55 | 167 | 0.9 | 2.6 | 0.00 | 0.00 | 0.00 | 72 | 1007.6 |
| 20260506040522 | 55 | 151 | 0.9 | 3.5 | 0.00 | 0.00 | 0.00 | 71 | 1007.5 |
| 20260506035530 | 55 | 163 | 2.6 | 3.5 | 0.00 | 0.00 | 0.00 | 71 | 1007.4 |
| 20260506034531 | 55 | 123 | 1.7 | 3.5 | 0.00 | 0.00 | 0.00 | 71 | 1007.4 |
| 20260506033522 | 55 | 137 | 1.7 | 2.6 | 0.00 | 0.00 | 0.00 | 70 | 1007.3 |
| 20260506032531 | 55 | 117 | 0.9 | 2.6 | 0.00 | 0.00 | 0.00 | 70 | 1007.3 |
| 20260506031522 | 55 | 77 | 1.7 | 4.3 | 0.00 | 0.00 | 0.00 | 70 | 1007.1 |
| 20260506030530 | 55 | 142 | 2.6 | 4.3 | 0.00 | 0.00 | 0.00 | 70 | 1007.0 |
| 20260506025523 | 55 | 141 | 0.9 | 3.5 | 0.00 | 0.00 | 0.00 | 71 | 1007.1 |
| 20260506024531 | 55 | 114 | 1.7 | 3.5 | 0.00 | 0.00 | 0.00 | 71 | 1007.2 |
| 20260506023523 | 55 | 149 | 1.7 | 4.3 | 0.00 | 0.00 | 0.00 | 71 | 1007.1 |
| 20260506022531 | 55 | 169 | 1.7 | 2.6 | 0.00 | 0.00 | 0.00 | 70 | 1007.0 |
| 20260506021522 | 56 | 155 | 2.6 | 3.5 | 0.00 | 0.00 | 0.00 | 70 | 1007.0 |
| 20260506020531 | 56 | 165 | 1.7 | 3.5 | 0.00 | 0.00 | 0.00 | 70 | 1006.9 |
| 20260506015522 | 56 | 118 | 0.9 | 2.6 | 0.00 | 0.00 | 0.00 | 69 | 1006.8 |
| 20260506014530 | 56 | 142 | 0.9 | 3.5 | 0.00 | 0.00 | 0.00 | 68 | 1006.7 |
| 20260506013523 | 56 | 145 | 1.7 | 3.5 | 0.00 | 0.00 | 0.00 | 69 | 1006.6 |
| 20260506012531 | 56 | 111 | 1.7 | 2.6 | 0.00 | 0.00 | 0.00 | 70 | 1006.5 |
| 20260506011523 | 56 | 81 | 1.7 | 2.6 | 0.00 | 0.00 | 0.00 | 69 | 1006.5 |
| 20260506010530 | 56 | 135 | 0.9 | 2.6 | 0.00 | 0.00 | 0.00 | 69 | 1006.6 |
| 20260506005523 | 56 | 105 | 1.7 | 1.7 | 0.00 | 0.00 | 0.00 | 70 | 1006.5 |
| 20260506004531 | 55 | 132 | 0.9 | 2.6 | 0.00 | 0.00 | 0.00 | 70 | 1006.2 |
| 20260506003522 | 55 | 80 | 0.9 | 1.7 | 0.00 | 0.00 | 0.00 | 70 | 1006.0 |
| 20260506002530 | 55 | 108 | 0.0 | 1.7 | 0.00 | 0.00 | 0.00 | 70 | 1005.9 |
| 20260506001523 | 55 | 113 | 0.9 | 1.7 | 0.00 | 0.00 | 0.00 | 69 | 1005.8 |
| 20260506000531 | 55 | 88 | 0.9 | 1.7 | 0.00 | 0.00 | 0.00 | 69 | 1005.7 |
| 20260505235523 | 55 | 44 | 0.9 | 2.6 | 0.00 | 0.00 | 0.00 | 69 | 1005.7 |
| 20260505234531 | 55 | 55 | 0.9 | 2.6 | 0.00 | 0.00 | 0.00 | 69 | 1005.6 |
| 20260505233522 | 55 | 98 | 0.0 | 1.7 | 0.00 | 0.00 | 0.00 | 70 | 1005.5 |
| 20260505232531 | 55 | 142 | 0.9 | 1.7 | 0.00 | 0.00 | 0.00 | 70 | 1005.4 |
| 20260505231523 | 55 | 120 | 0.9 | 1.7 | 0.00 | 0.00 | 0.00 | 69 | 1005.2 |
| 20260505230531 | 56 | 111 | 0.9 | 2.6 | 0.00 | 0.00 | 0.00 | 68 | 1005.2 |
| 20260505225522 | 56 | 133 | 0.9 | 2.6 | 0.00 | 0.00 | 0.00 | 67 | 1005.2 |
| 20260505224530 | 56 | 130 | 0.9 | 2.6 | 0.00 | 0.00 | 0.00 | 66 | 1005.1 |
| 20260505223523 | 57 | 124 | 0.9 | 1.7 | 0.00 | 0.00 | 0.00 | 64 | 1005.0 |
| 20260505222523 | 58 | 104 | 0.0 | 1.7 | 0.00 | 0.00 | 0.00 | 63 | 1004.8 |
| 20260505221531 | 57 | 140 | 0.9 | 2.6 | 0.00 | 0.00 | 0.00 | 63 | 1004.8 |
| 20260505220523 | 57 | 135 | 0.9 | 2.6 | 0.00 | 0.00 | 0.00 | 63 | 1004.8 |
| 20260505215531 | 57 | 141 | 0.9 | 1.7 | 0.00 | 0.00 | 0.00 | 63 | 1004.6 |
| 20260505214523 | 58 | 39 | 0.9 | 2.6 | 0.00 | 0.00 | 0.00 | 62 | 1004.6 |
| 20260505213531 | 58 | 110 | 1.7 | 2.6 | 0.00 | 0.00 | 0.00 | 61 | 1004.5 |
| 20260505212531 | 61 | 23 | 0.9 | 3.5 | 0.00 | 0.00 | 0.00 | 57 | 1004.4 |
| 20260505211523 | 63 | 136 | 0.0 | 3.5 | 0.00 | 0.00 | 0.00 | 52 | 1004.3 |
| 20260505210531 | 63 | 154 | 1.7 | 4.3 | 0.00 | 0.00 | 0.00 | 51 | 1004.1 |
| 20260505205523 | 64 | 164 | 2.6 | 5.2 | 0.00 | 0.00 | 0.00 | 51 | 1004.0 |
| 20260505204531 | 64 | 167 | 4.3 | 7.8 | 0.00 | 0.00 | 0.00 | 50 | 1003.8 |
| 20260505203522 | 64 | 173 | 4.3 | 8.7 | 0.00 | 0.00 | 0.00 | 50 | 1003.7 |
| 20260505202531 | 64 | 168 | 4.3 | 8.7 | 0.00 | 0.00 | 0.00 | 50 | 1003.7 |
| 20260505201524 | 64 | 175 | 4.3 | 8.7 | 0.00 | 0.00 | 0.00 | 50 | 1003.6 |
| 20260505200531 | 65 | 176 | 4.3 | 8.7 | 0.00 | 0.00 | 0.00 | 50 | 1003.6 |
| 20260505195523 | 65 | 178 | 4.3 | 9.6 | 0.00 | 0.00 | 0.00 | 49 | 1003.6 |
| 20260505194515 | 65 | 175 | 5.2 | 11.3 | 0.00 | 0.00 | 0.00 | 49 | 1003.7 |
| 20260505193524 | 65 | 176 | 5.2 | 10.4 | 0.00 | 0.00 | 0.00 | 49 | 1003.5 |
| 20260505192531 | 65 | 170 | 4.3 | 11.3 | 0.00 | 0.00 | 0.00 | 49 | 1003.4 |
| 20260505191523 | 66 | 177 | 5.2 | 13.9 | 0.00 | 0.00 | 0.00 | 48 | 1003.4 |
| 20260505190532 | 66 | 175 | 5.2 | 11.3 | 0.00 | 0.00 | 0.00 | 48 | 1003.3 |
| 20260505185523 | 66 | 177 | 5.2 | 11.3 | 0.00 | 0.00 | 0.00 | 47 | 1003.4 |
| 20260505184524 | 67 | 181 | 7.0 | 13.9 | 0.00 | 0.00 | 0.00 | 46 | 1003.4 |
| 20260505183531 | 67 | 169 | 5.2 | 11.3 | 0.00 | 0.00 | 0.00 | 46 | 1003.3 |
| 20260505182524 | 67 | 170 | 6.1 | 16.5 | 0.00 | 0.00 | 0.00 | 46 | 1003.2 |
| 20260505181532 | 68 | 160 | 7.0 | 15.6 | 0.00 | 0.00 | 0.00 | 45 | 1003.2 |
| 20260505180523 | 68 | 167 | 6.1 | 12.2 | 0.00 | 0.00 | 0.00 | 45 | 1003.4 |
| 20260505175530 | 68 | 166 | 7.0 | 13.0 | 0.00 | 0.00 | 0.00 | 44 | 1003.3 |
| 20260505174524 | 69 | 172 | 6.1 | 13.0 | 0.00 | 0.00 | 0.00 | 43 | 1003.3 |
| 20260505173523 | 69 | 163 | 7.0 | 14.8 | 0.00 | 0.00 | 0.00 | 43 | 1003.3 |
| 20260505172531 | 69 | 167 | 6.1 | 16.5 | 0.00 | 0.00 | 0.00 | 42 | 1003.5 |
| 20260505171523 | 70 | 156 | 6.1 | 12.2 | 0.00 | 0.00 | 0.00 | 41 | 1003.5 |
| 20260505170531 | 71 | 156 | 5.2 | 14.8 | 0.00 | 0.00 | 0.00 | 41 | 1003.5 |
| 20260505165532 | 71 | 175 | 7.0 | 16.5 | 0.00 | 0.00 | 0.00 | 40 | 1003.5 |
| 20260505164523 | 72 | 163 | 7.0 | 17.4 | 0.00 | 0.00 | 0.00 | 39 | 1003.6 |
| 20260505163531 | 73 | 176 | 7.8 | 18.2 | 0.00 | 0.00 | 0.00 | 38 | 1003.8 |
| 20260505162523 | 73 | 157 | 6.1 | 16.5 | 0.00 | 0.00 | 0.00 | 38 | 1003.9 |
| 20260505161531 | 74 | 164 | 8.7 | 17.4 | 0.00 | 0.00 | 0.00 | 38 | 1004.1 |
| 20260505160524 | 74 | 174 | 6.1 | 14.8 | 0.00 | 0.00 | 0.00 | 38 | 1004.1 |